Memphis, TN

5:36 PM CDT on May 24, 2017 (GMT -0500)
Memphis International

Weather History for KMEM - October, 2013

Change the Weather History Date:

Saturday, October 12, 2013

  Actual Average Record
Temperature  
Mean Temperature 69 °F 65 °F  
Max Temperature 75 °F 76 °F 92 °F (1975)
Min Temperature 62 °F 55 °F 35 °F (1875)
Degree Days  
Heating Degree Days 0 3  
Month to date heating degree days 7 25  
Since 1 July heating degree days 7 36  
Cooling Degree Days 4 3  
Month to date cooling degree days 84 52  
Year to date cooling degree days 2211 2203  
Growing Degree Days 19 (Base 50)    
Moisture  
Dew Point 63 °F    
Average Humidity 81    
Maximum Humidity 93    
Minimum Humidity 68    
Precipitation  
Precipitation 0.44 in 0.12 in 1.58 in (1955)
Month to date precipitation 0.91 1.41  
Year to date precipitation 49.55 39.88  
Snow  
Snow 0.00 in 0.00 in 0.00 in (2002)
Month to date snowfall 0.0 0.0  
Since 1 July snowfall 0.0 0.0  
Since 1 September snowfall 0.0 0.0  
Snow Depth 0.00 in    
Sea Level Pressure  
Sea Level Pressure 30.05 in    
Wind  
Wind Speed 4 mph (South)    
Max Wind Speed 20 mph    
Max Gust Speed 26 mph    
Visibility 9 miles    
Events Rain    
T = Trace of Precipitation, MM = Missing Value Source: NWS Daily Summary

Daily Weather History Graph

Daily Weather History Graph

Search for Another Location

Airport or City:

Trip Planner

Search our weather history database for the weather conditions in past years. The results will help you decide how hot, cold, wet, or windy it might be!

Date:

Astronomy

Oct. 12, 2013 Rise Set
Actual Time 7:03 AM CDT 6:28 PM CDT
Civil Twilight 6:38 AM CDT 6:53 PM CDT
Nautical Twilight 6:08 AM CDT 7:23 PM CDT
Astronomical Twilight 5:39 AM CDT 7:52 PM CDT
Moon 2:25 PM CDT (10/12) 12:21 AM CDT (10/12)
Length of Visible Light 12h 15m
Length of Day
11h 24m
First Quarter, 59% of the Moon is Illuminated
Oct 12
First Quarter
Oct 18
Full
Oct 26
Last Quarter
Nov 3
New
Nov 9
First Quarter

Hourly Weather History & Observations

Time (CDT) Temp. Dew Point Humidity Pressure Visibility Wind Dir Wind Speed Gust Speed Precip Events Conditions
12:54 AM 70.5 °F 59.9 °F 69% 29.98 in 10.0 mi SE 5.8 mph - N/A   Clear
1:54 AM 68.5 °F 60.4 °F 75% 29.99 in 10.0 mi SSE 3.5 mph - N/A   Clear
2:54 AM 64.9 °F 60.1 °F 84% 29.98 in 10.0 mi South 6.9 mph - N/A   Clear
3:54 AM 63.0 °F 59.0 °F 87% 29.99 in 10.0 mi Calm Calm - N/A   Clear
4:54 AM 64.0 °F 59.0 °F 84% 30.00 in 10.0 mi South 4.6 mph - N/A   Partly Cloudy
5:54 AM 64.0 °F 59.0 °F 84% 30.01 in 10.0 mi South 4.6 mph - N/A   Scattered Clouds
6:54 AM 66.0 °F 60.1 °F 81% 30.01 in 10.0 mi South 9.2 mph - N/A   Scattered Clouds
7:54 AM 66.9 °F 61.0 °F 81% 30.03 in 10.0 mi South 5.8 mph - N/A   Mostly Cloudy
8:54 AM 70.0 °F 63.0 °F 78% 30.03 in 10.0 mi South 8.1 mph - N/A   Overcast
9:54 AM 73.0 °F 64.0 °F 73% 30.05 in 10.0 mi South 4.6 mph - N/A   Overcast
10:54 AM 73.9 °F 66.0 °F 76% 30.08 in 10.0 mi SW 8.1 mph - N/A   Overcast
11:45 AM 73.4 °F 66.2 °F 78% 30.12 in 10.0 mi WNW 18.4 mph 21.9 mph 0.00 in Rain Light Rain
11:54 AM 70.0 °F 64.0 °F 81% 30.11 in 1.0 mi WNW 13.8 mph 26.5 mph 0.05 in Rain Heavy Rain
12:15 PM 68.0 °F 64.4 °F 88% 30.12 in 3.0 mi NW 5.8 mph - 0.27 in Rain Light Rain
12:41 PM 68.0 °F 64.4 °F 88% 30.12 in 8.0 mi NW 4.6 mph - 0.31 in Rain Light Rain
12:54 PM 68.0 °F 64.0 °F 87% 30.11 in 8.0 mi Calm Calm - 0.32 in Rain Light Rain
1:54 PM 68.0 °F 64.9 °F 90% 30.03 in 10.0 mi SE 9.2 mph - 0.07 in Rain Light Rain
2:14 PM 68.0 °F 64.4 °F 88% 30.07 in 10.0 mi North 4.6 mph - 0.00 in Rain Light Rain
2:54 PM 70.0 °F 66.0 °F 87% 30.04 in 10.0 mi ENE 4.6 mph - 0.00 in   Mostly Cloudy
3:54 PM 73.0 °F 66.0 °F 79% 30.02 in 10.0 mi SE 5.8 mph - N/A   Scattered Clouds
4:54 PM 73.9 °F 64.9 °F 73% 30.03 in 10.0 mi South 3.5 mph - N/A   Scattered Clouds
5:54 PM 73.0 °F 66.0 °F 79% 30.04 in 10.0 mi South 4.6 mph - N/A   Scattered Clouds
6:54 PM 70.0 °F 66.0 °F 87% 30.06 in 10.0 mi South 6.9 mph - N/A   Scattered Clouds
7:54 PM 69.1 °F 66.0 °F 90% 30.08 in 10.0 mi Calm Calm - N/A   Scattered Clouds
8:54 PM 66.9 °F 64.9 °F 93% 30.10 in 10.0 mi Calm Calm - N/A   Scattered Clouds
9:54 PM 66.9 °F 64.0 °F 90% 30.10 in 10.0 mi Calm Calm - N/A   Scattered Clouds
10:54 PM 66.9 °F 64.9 °F 93% 30.12 in 10.0 mi Calm Calm - N/A   Scattered Clouds
11:54 PM 66.0 °F 64.0 °F 93% 30.13 in 10.0 mi Calm Calm - N/A   Mostly Cloudy